Погода в Морочном

Украина / Ровненская область     51°50′45″N   25°55′32″E
темп.,
°C
ветер,
м/с
пор.,
м/с
влажн.,
%
обл.,
%
осадки,
мм/ч
давл.,
гПа
погр.,
м
17 октября, вс
вс1700:00+8з377095 0.0 1021370
03:00+7зюз3770100 0.0 1020287
06:00+7зюз3766100 0.0 1020313
09:00+8юз3764100 0.0 1020383
12:00+10зсз464994 0.0 10201527
15:00+10з464964 0.0 10201487
18:00+9з4856100 0.0 1019370
21:00+7юз386397 0.0 1019187
18 октября, пн
пн1800:00+7юз3962100 0.0 1020256
03:00+7зюз3962100 0.0 1019352
06:00+6зюз3970100 0.0 1019288
09:00+8зюз3968100 0.0 1019483
12:00+9з4867100 0.0 1019697
15:00+12зсз576099 0.1 10191270
18:00+10зсз496763 0.2 1019377
21:00+9зсз3772100 0.4 1019351
19 октября, вт
вт1900:00+6ссз3989100 3.0 1021924
03:00+4ссз38860 3.3 1023191
06:00+2сз37895 0.0 1025167
09:00+2сз2786100 0.0 1027223
12:00+7сз3563100 0.0 1028595
15:00+9сз45508 0.0 10271189
18:00+5сз226588 0.0 102714
21:00+4з117056 0.0 102810
20 октября, ср
ср2000:00+3ю227397 0.0 102813
03:00+2ю347512 0.0 102762
06:00+2ю3868100 0.0 1026164
09:00+4ю41067100 0.0 1024257
12:00+11ю61067100 0.0 1021524
15:00+13ююз61160100 0.0 1018814
18:00+12ююз51261100 0.0 1016550
21:00+11ююз61464100 0.0 1015518
21 октября, чт
чт2100:00+11ююз51463100 0.0 1013480
03:00+10ююз51462100 0.0 1011505
06:00+10ююз6156189 0.0 1010520
09:00+11ююз6156095 0.0 1008577
12:00+15юз71451100 0.0 1008936
15:00+15юз61361100 0.0 1006937
18:00+14юз6126698 0.0 1007815
21:00+13юз61373100 0.0 1008678